Weather History for Acapulco, Mexico

Change the Weather History Date:

Monday, June 24, 2013

  Actual Average Record
Temperature  
Mean Temperature 84 °F -  
Max Temperature 94 °F 91 °F 94 °F (2013)
Min Temperature 73 °F 76 °F 68 °F (2003)
Cooling Degree Days 18    
Growing Degree Days 34 (Base 50)    
Moisture  
Dew Point 75 °F    
Average Humidity 89    
Maximum Humidity 100    
Minimum Humidity 76    
Precipitation  
Precipitation 0.31 in 0.29 in - ()
Sea Level Pressure  
Sea Level Pressure 29.90 in    
Wind  
Wind Speed 6 mph ()    
Max Wind Speed 20 mph    
Max Gust Speed 31 mph    
Visibility 6.9 miles    
Events Rain , Thunderstorm    
Averages and records for this station are not official NWS values.
T = Trace of Precipitation, MM = Missing Value Source: Averaged Metar Reports

Daily Weather History Graph

Daily Weather History Graph

Search for Another Location

Airport:

Trip Planner

Search our weather history database for the weather conditions in past years. The results will help you decide how hot, cold, wet, or windy it might be!

Date:

Astronomy

Jun. 24, 2013 Rise Set
Actual Time 7:07 AM CDT 8:15 PM CDT
Civil Twilight 6:43 AM CDT 8:39 PM CDT
Nautical Twilight 6:15 AM CDT 9:07 PM CDT
Astronomical Twilight 5:46 AM CDT 9:36 PM CDT
Moon 9:38 PM CDT (6/24) 8:22 AM CDT (6/24)
Length of Visible Light 13h 55m
Length of Day
13h 07m
Full, 98% of the Moon is Illuminated
Jun 24
Full
Jun 29
Last Quarter
Jul 8
New
Jul 15
First Quarter
Jul 22
Full

Hourly Weather History & Observations

Time (CDT) Temp. Heat Index Dew Point Humidity Pressure Visibility Wind Dir Wind Speed Gust Speed Precip Events Conditions
12:46 AM 77 °F - 76 °F 94% 29.94 in 6 mi East 4.5 mph - - Rain Drizzle
12:48 AM 75.2 °F - 75.2 °F 100% 29.92 in 5.0 mi East 3.5 mph - N/A Rain , Thunderstorm Thunderstorms and Rain
1:45 AM 75.2 °F - 75.2 °F 100% 29.92 in 6.0 mi Calm Calm - N/A Rain Light Rain
2:45 AM 77.0 °F - 75.2 °F 94% 29.89 in 8.0 mi ENE 4.6 mph - N/A   Overcast
3:46 AM 78 °F - 76 °F 92% 29.88 in 6 mi North 2.2 mph - - Rain Light Drizzle
3:48 AM 77.0 °F - 75.2 °F 94% 29.86 in 8.0 mi NNE 5.8 mph - N/A   Overcast
4:55 AM 77.0 °F - 75.2 °F 94% 29.85 in 8.0 mi NNE 5.8 mph - N/A   Overcast
5:45 AM 77.0 °F - 73.4 °F 89% 29.85 in 6.0 mi NE 4.6 mph - N/A Rain Light Rain
6:44 AM 77 °F - 75 °F 93% 29.86 in 11 mi North 2.2 mph - - Rain Light Drizzle
6:49 AM 77.0 °F - 75.2 °F 94% 29.85 in 8.0 mi Calm Calm - N/A   Overcast
7:12 AM 77.0 °F - 73.4 °F 89% 29.87 in 7.0 mi East 4.6 mph - N/A   Overcast
7:44 AM 78.8 °F - 75.2 °F 89% 29.88 in 7.0 mi East 6.9 mph - N/A Rain Light Rain
8:45 AM 75.2 °F - 75.2 °F 100% 29.92 in 0.5 mi East 17.3 mph - N/A   Overcast
9:04 AM 75.2 °F - 73.4 °F 94% 29.91 in 8.0 mi ENE 6.9 mph - N/A   Overcast
9:47 AM 78.8 °F - 75.2 °F 89% 29.91 in 8.0 mi NNE 5.8 mph - N/A   Overcast
9:50 AM 78 °F - 76 °F 92% 29.93 in 11 mi NNE 2.2 mph - - Rain Light Drizzle
10:47 AM 80.6 °F 86.2 °F 75.2 °F 84% 29.92 in 8.0 mi NE 6.9 mph - N/A   Overcast
11:49 AM 78.8 °F - 77.0 °F 94% 29.94 in 7.0 mi SE 5.8 mph - N/A   Overcast
12:47 PM 80.6 °F 87.1 °F 77.0 °F 89% 29.93 in 8.0 mi SE 6.9 mph - N/A   Overcast
12:50 PM 82 °F - 78 °F 83% 29.96 in 11 mi ESE 6.7 mph - - Rain Light Drizzle
1:24 PM 78.8 °F - 77.0 °F 94% 29.93 in 2.0 mi SE 6.9 mph - N/A Rain Rain
1:45 PM 78.8 °F - 77.0 °F 94% 29.93 in 6.0 mi ESE 6.9 mph - N/A   Overcast
2:00 PM 78.8 °F - 77.0 °F 94% 29.94 in 1.0 mi ESE 17.3 mph - N/A Rain Rain Showers
2:43 PM - - - N/A% 29.93 in 7.0 mi East 6.9 mph - N/A   Overcast
3:46 PM 80.6 °F 87.1 °F 77.0 °F 89% 29.93 in 7.0 mi Calm Calm - N/A   Overcast
3:50 PM 81 °F - 78 °F 89% 29.93 in 11 mi NE 11.2 mph - - Rain Light Drizzle
4:03 PM 80.6 °F 86.2 °F 75.2 °F 84% 29.89 in 7.0 mi East 13.8 mph - N/A   Overcast
4:42 PM 82.4 °F 90.9 °F 77.0 °F 84% 29.88 in 7.0 mi East 5.8 mph - N/A   Overcast
5:03 PM 78.8 °F - 77.0 °F 94% 29.87 in 1.5 mi ESE 19.6 mph 31.1 mph N/A Rain Heavy Rain
5:12 PM 78.8 °F - 75.2 °F 89% 29.87 in 4.0 mi SE 15.0 mph 26.5 mph N/A Rain Rain
5:31 PM 80.6 °F 86.2 °F 75.2 °F 84% 29.87 in 7.0 mi ESE 11.5 mph - N/A   Overcast
5:45 PM 80.6 °F 86.2 °F 75.2 °F 84% 29.87 in 7.0 mi East 13.8 mph - N/A   Overcast
6:42 PM 80.6 °F 86.2 °F 75.2 °F 84% 29.88 in 7.0 mi East 11.5 mph - N/A   Overcast
6:50 PM 81 °F - 76 °F 80% 29.90 in 11 mi NE 13.4 mph - - Rain Light Drizzle
6:55 PM 80.6 °F 86.2 °F 75.2 °F 84% 29.88 in 7.0 mi ENE 9.2 mph - N/A   Overcast
7:45 PM 78.8 °F - 75.2 °F 89% 29.90 in 7.0 mi NNE 11.5 mph - N/A   Overcast
8:42 PM 78.8 °F - 73.4 °F 83% 29.91 in 7.0 mi NNE 11.5 mph - N/A   Overcast
9:42 PM 80.6 °F 85.4 °F 73.4 °F 79% 29.92 in 7.0 mi NNE 9.2 mph - N/A   Overcast
9:48 PM 80 °F - 74 °F 76% 29.93 in 6 mi NNE 2.2 mph - -   Overcast
10:42 PM 78.8 °F - 73.4 °F 83% 29.93 in 7.0 mi NNE 9.2 mph - N/A   Overcast
11:45 PM 78.8 °F - 73.4 °F 83% 29.95 in 7.0 mi NNE 6.9 mph - N/A   Overcast